When you browse on this site, cookies collect data to enhance your experience and personalize the content and advertising you see.
Visit our Privacy Policy to learn more. By continuing to use the site, you agree to this use of cookies and data.

Hourly Weather Gwatemala

Today, 8 July, Wednesday

Time Temperature Precipitation Wind Pressure Humidity
00:00 +18°C° 0 mm 1 mps 638 mmHg 97%
01:00 +18°C° 0 mm 1 mps 637 mmHg 97%
02:00 +18°C° 0 mm 1 mps 637 mmHg 96%
03:00 +18°C° 0 mm 1 mps 637 mmHg 96%
04:00 +18°C° 0 mm 1 mps 636 mmHg 96%
05:00 +16°C° 0 mm 1 mps 636 mmHg 96%
06:00 +16°C° 0 mm 1 mps 636 mmHg 96%
07:00 +19°C° 0 mm 1 mps 637 mmHg 89%
08:00 +21°C° 0 mm 1 mps 638 mmHg 82%
09:00 +23°C° 0 mm 1 mps 639 mmHg 75%
10:00 +24°C° 0.1 mm 1 mps 639 mmHg 71%
11:00 +25°C° 0.1 mm 1 mps 639 mmHg 67%
12:00 +26°C° 0.1 mm 1 mps 640 mmHg 64%
13:00 +26°C° 0.8 mm 1 mps 639 mmHg 68%
14:00 +26°C° 0.8 mm 1 mps 638 mmHg 71%
15:00 +25°C° 0.8 mm 1 mps 637 mmHg 75%
16:00 +24°C° 0.6 mm 1 mps 637 mmHg 81%
17:00 +23°C° 0.6 mm 1 mps 637 mmHg 86%
18:00 +20°C° 0.6 mm 0 mps 637 mmHg 91%
19:00 +21°C° 0.2 mm 1 mps 637 mmHg 92%
20:00 +20°C° 0.2 mm 1 mps 637 mmHg 93%
21:00 +18°C° 0.2 mm 1 mps 637 mmHg 94%
22:00 +18°C° 0 mm 1 mps 637 mmHg 94%
23:00 +18°C° 0 mm 1 mps 637 mmHg 94%

Tomorrow, 9 July, Thursday

Time Temperature Precipitation Wind Pressure Humidity
00:00 +16°C° 0 mm 1 mps 636 mmHg 95%
01:00 +16°C° 0 mm 1 mps 636 mmHg 95%
02:00 +16°C° 0 mm 1 mps 636 mmHg 96%
03:00 +16°C° 0 mm 1 mps 635 mmHg 96%
04:00 +16°C° 0 mm 1 mps 635 mmHg 96%
05:00 +16°C° 0 mm 1 mps 636 mmHg 96%
06:00 +16°C° 0 mm 1 mps 636 mmHg 96%
07:00 +19°C° 0 mm 1 mps 637 mmHg 89%
08:00 +21°C° 0 mm 1 mps 637 mmHg 83%
09:00 +23°C° 0 mm 1 mps 638 mmHg 76%
10:00 +24°C° 0 mm 1 mps 638 mmHg 70%
11:00 +25°C° 0 mm 1 mps 639 mmHg 63%
12:00 +27°C° 0 mm 1 mps 639 mmHg 57%
13:00 +26°C° 0.3 mm 1 mps 638 mmHg 61%
14:00 +26°C° 0.3 mm 1 mps 638 mmHg 64%
15:00 +26°C° 0.3 mm 1 mps 637 mmHg 67%
16:00 +24°C° 0.5 mm 1 mps 637 mmHg 75%
17:00 +23°C° 0.5 mm 1 mps 637 mmHg 83%
18:00 +20°C° 0.5 mm 0 mps 636 mmHg 91%
19:00 +20°C° 0.2 mm 1 mps 636 mmHg 92%
20:00 +19°C° 0.2 mm 1 mps 637 mmHg 93%
21:00 +18°C° 0.2 mm 1 mps 637 mmHg 94%
22:00 +18°C° 0 mm 1 mps 637 mmHg 95%
23:00 +18°C° 0 mm 1 mps 637 mmHg 96%

Day after tomorrow, 10 July, Friday

Time Temperature Precipitation Wind Pressure Humidity
00:00 +18°C° 0 mm 1 mps 637 mmHg 97%
01:00 +16°C° 0 mm 1 mps 637 mmHg 97%
02:00 +16°C° 0 mm 1 mps 636 mmHg 96%
03:00 +16°C° 0 mm 1 mps 636 mmHg 96%
04:00 +16°C° 0 mm 1 mps 636 mmHg 95%
05:00 +16°C° 0 mm 1 mps 636 mmHg 94%
06:00 +16°C° 0 mm 1 mps 636 mmHg 94%
07:00 +18°C° 0 mm 1 mps 637 mmHg 91%
08:00 +18°C° 0 mm 1 mps 637 mmHg 88%
09:00 +19°C° 0 mm 1 mps 638 mmHg 85%
10:00 +20°C° 0.1 mm 1 mps 638 mmHg 82%
11:00 +21°C° 0.1 mm 1 mps 638 mmHg 79%
12:00 +22°C° 0.1 mm 1 mps 638 mmHg 76%
13:00 +22°C° 0.1 mm 1 mps 638 mmHg 74%
14:00 +23°C° 0.1 mm 1 mps 638 mmHg 73%
15:00 +22°C° 0.1 mm 0 mps 638 mmHg 71%
16:00 +20°C° 0.3 mm 0 mps 637 mmHg 77%
17:00 +19°C° 0.3 mm 0 mps 637 mmHg 83%
18:00 +19°C° 0.3 mm 1 mps 637 mmHg 89%
19:00 +19°C° 0.2 mm 1 mps 637 mmHg 89%
20:00 +19°C° 0.2 mm 1 mps 637 mmHg 90%
21:00 +18°C° 0.2 mm 1 mps 638 mmHg 91%
22:00 +18°C° 0.1 mm 1 mps 637 mmHg 92%
23:00 +18°C° 0.1 mm 1 mps 637 mmHg 93%

11 July, Saturday

Time Temperature Precipitation Wind Pressure Humidity
00:00 +16°C° 0.1 mm 1 mps 637 mmHg 95%
01:00 +16°C° 0 mm 1 mps 637 mmHg 94%
02:00 +16°C° 0 mm 1 mps 637 mmHg 94%
03:00 +16°C° 0 mm 1 mps 636 mmHg 94%
04:00 +15°C° 0 mm 1 mps 636 mmHg 94%
05:00 +15°C° 0 mm 1 mps 636 mmHg 95%
06:00 +15°C° 0 mm 1 mps 636 mmHg 95%
07:00 +18°C° 0 mm 1 mps 637 mmHg 89%
08:00 +20°C° 0 mm 1 mps 638 mmHg 83%
09:00 +22°C° 0 mm 1 mps 639 mmHg 77%
10:00 +24°C° 0 mm 2 mps 639 mmHg 69%
11:00 +25°C° 0 mm 2 mps 639 mmHg 61%
12:00 +26°C° 0 mm 2 mps 639 mmHg 53%
13:00 +26°C° 0.1 mm 2 mps 639 mmHg 55%
14:00 +26°C° 0.1 mm 2 mps 638 mmHg 57%
15:00 +26°C° 0.1 mm 1 mps 638 mmHg 60%
16:00 +24°C° 0.4 mm 1 mps 638 mmHg 69%
17:00 +23°C° 0.4 mm 1 mps 637 mmHg 78%
18:00 +21°C° 0.4 mm 1 mps 637 mmHg 87%
19:00 +20°C° 0.1 mm 1 mps 637 mmHg 89%
20:00 +19°C° 0.1 mm 1 mps 637 mmHg 91%
21:00 +16°C° 0.1 mm 1 mps 637 mmHg 93%
22:00 +16°C° 0 mm 1 mps 637 mmHg 93%
23:00 +16°C° 0 mm 1 mps 637 mmHg 94%

12 July, Sunday

Time Temperature Precipitation Wind Pressure Humidity
00:00 +15°C° 0 mm 1 mps 637 mmHg 94%
01:00 +15°C° 0 mm 1 mps 636 mmHg 94%
02:00 +15°C° 0 mm 1 mps 636 mmHg 93%
03:00 +15°C° 0 mm 1 mps 636 mmHg 93%
04:00 +14°C° 0 mm 1 mps 636 mmHg 93%
05:00 +14°C° 0 mm 1 mps 636 mmHg 93%
06:00 +14°C° 0 mm 1 mps 636 mmHg 93%
07:00 +18°C° 0 mm 1 mps 637 mmHg 84%
08:00 +20°C° 0 mm 1 mps 638 mmHg 76%
09:00 +22°C° 0 mm 1 mps 639 mmHg 68%
10:00 +24°C° 0 mm 1 mps 639 mmHg 63%
11:00 +25°C° 0 mm 2 mps 639 mmHg 58%
12:00 +26°C° 0 mm 2 mps 639 mmHg 53%
13:00 +26°C° 0.1 mm 1 mps 639 mmHg 54%
14:00 +26°C° 0.1 mm 1 mps 638 mmHg 56%
15:00 +26°C° 0.1 mm 1 mps 637 mmHg 57%
16:00 +24°C° 0.3 mm 1 mps 637 mmHg 67%
17:00 +23°C° 0.3 mm 1 mps 637 mmHg 77%
18:00 +21°C° 0.3 mm 1 mps 637 mmHg 86%
19:00 +20°C° 0.1 mm 1 mps 637 mmHg 89%
20:00 +19°C° 0.1 mm 1 mps 637 mmHg 91%
21:00 +18°C° 0.1 mm 1 mps 637 mmHg 93%
22:00 +16°C° 0 mm 1 mps 637 mmHg 94%
23:00 +16°C° 0 mm 1 mps 637 mmHg 94%

13 July, Monday

Time Temperature Precipitation Wind Pressure Humidity
00:00 +16°C° 0 mm 1 mps 637 mmHg 95%
01:00 +16°C° 0 mm 1 mps 637 mmHg 95%
02:00 +15°C° 0 mm 1 mps 636 mmHg 95%
03:00 +15°C° 0 mm 1 mps 636 mmHg 94%
04:00 +15°C° 0 mm 1 mps 636 mmHg 93%
05:00 +15°C° 0 mm 1 mps 636 mmHg 92%
06:00 +15°C° 0 mm 1 mps 636 mmHg 91%
07:00 +18°C° 0 mm 1 mps 637 mmHg 83%
08:00 +21°C° 0 mm 1 mps 639 mmHg 75%
09:00 +23°C° 0 mm 1 mps 640 mmHg 67%
10:00 +24°C° 0.1 mm 1 mps 640 mmHg 66%
11:00 +24°C° 0.1 mm 1 mps 640 mmHg 65%
12:00 +25°C° 0.1 mm 1 mps 640 mmHg 64%
13:00 +25°C° 0.4 mm 1 mps 639 mmHg 65%
14:00 +25°C° 0.4 mm 1 mps 639 mmHg 66%
15:00 +25°C° 0.4 mm 1 mps 638 mmHg 67%
16:00 +24°C° 0.5 mm 1 mps 638 mmHg 75%
17:00 +22°C° 0.5 mm 1 mps 638 mmHg 84%
18:00 +19°C° 0.5 mm 0 mps 637 mmHg 92%
19:00 +20°C° 0.3 mm 1 mps 637 mmHg 93%
20:00 +19°C° 0.3 mm 1 mps 638 mmHg 94%
21:00 +18°C° 0.3 mm 1 mps 638 mmHg 95%
22:00 +18°C° 0 mm 1 mps 638 mmHg 95%
23:00 +16°C° 0 mm 1 mps 637 mmHg 95%
Show more